This is the latest recevied weather packets stored in our database for station/object SQ5JP-4. If no packets are shown the sender has not sent any weather packets the latest 10 day(s).
| Time | Temp. | Humidity | Pressure | Rain* | Wind** | Luminosity | Snow |
|---|---|---|---|---|---|---|---|
| 1777510787 | -3.33° C | 100% | 1011.3 hPa | - | - | - | - |
| 1777509887 | -3.33° C | 100% | 1011.2 hPa | - | - | - | - |
| 1777508986 | -3.33° C | 100% | 1011.1 hPa | - | - | - | - |
| 1777508086 | -2.78° C | 100% | 1011.4 hPa | - | - | - | - |
| 1777507186 | -2.78° C | 100% | 1011.3 hPa | - | - | - | - |
| 1777506286 | -2.78° C | 100% | 1011.3 hPa | - | - | - | - |
| 1777505386 | -2.22° C | 100% | 1011.4 hPa | - | - | - | - |
| 1777504486 | -2.22° C | 100% | 1011.5 hPa | - | - | - | - |
| 1777503586 | -2.22° C | 100% | 1011.4 hPa | - | - | - | - |
| 1777502686 | -1.67° C | 100% | 1011.4 hPa | - | - | - | - |
| 1777501786 | -1.11° C | 100% | 1011.3 hPa | - | - | - | - |
| 1777500886 | -1.67° C | 100% | 1011.3 hPa | - | - | - | - |
| 1777499985 | -1.11° C | 100% | 1011.3 hPa | - | - | - | - |
| 1777499084 | -1.11° C | 100% | 1011.3 hPa | - | - | - | - |
| 1777498184 | -1.11° C | 100% | 1011.2 hPa | - | - | - | - |
| 1777497284 | -1.11° C | 100% | 1011.2 hPa | - | - | - | - |
| 1777496384 | -1.11° C | 100% | 1011.2 hPa | - | - | - | - |
| 1777495484 | -0.56° C | 100% | 1011.2 hPa | - | - | - | - |
| 1777494583 | -0.56° C | 100% | 1011 hPa | - | - | - | - |
| 1777492787 | 0.56° C | 100% | 1011.2 hPa | - | - | - | - |
| 1777491887 | 1.11° C | 100% | 1011.2 hPa | - | - | - | - |
| 1777490987 | 2.22° C | 100% | 1011 hPa | - | - | - | - |
| 1777490087 | 3.33° C | 100% | 1010.9 hPa | - | - | - | - |
| 1777489187 | 4.44° C | 100% | 1010.8 hPa | - | - | - | - |
| 1777488286 | 5° C | 99% | 1010.9 hPa | - | - | - | - |
* Rain since midnight (hover to see other rain measurements)
** Current wind speed in m/s (hover to see current wind gust speed)